Weather History for Laramie, WY

Change the Weather History Date:

Friday, November 8, 2013

  Actual Average Record
Temperature  
Mean Temperature 41 °F 33 °F  
Max Temperature 49 °F 45 °F 65 °F (1978)
Min Temperature 32 °F 21 °F -2 °F (1948)
Degree Days  
Heating Degree Days 24 32  
Month to date heating degree days 263 244  
Since 1 July heating degree days 1404 1487  
Cooling Degree Days 0 0  
Month to date cooling degree days 0 0  
Year to date cooling degree days 162 67  
Moisture  
Dew Point 21 °F    
Average Humidity 44    
Maximum Humidity 54    
Minimum Humidity 34    
Precipitation  
Precipitation 0.00 in 0.02 in 0.40 in (1983)
Month to date precipitation 0.18 0.17  
Year to date precipitation 11.64 10.23  
Sea Level Pressure  
Sea Level Pressure 29.84 in    
Wind  
Wind Speed 20 mph (SW)    
Max Wind Speed 44 mph    
Max Gust Speed 53 mph    
Visibility 10 miles    
Events      
T = Trace of Precipitation, MM = Missing Value Source: NWS Daily Summary

Daily Weather History Graph

Daily Weather History Graph

Search for Another Location

Airport:

Trip Planner

Search our weather history database for the weather conditions in past years. The results will help you decide how hot, cold, wet, or windy it might be!

Date:

Astronomy

Nov. 08, 2013 Rise Set
Actual Time 6:42 AM MST 4:49 PM MST
Civil Twilight 6:13 AM MST 5:18 PM MST
Nautical Twilight 5:40 AM MST 5:51 PM MST
Astronomical Twilight 5:08 AM MST 6:24 PM MST
Moon 11:40 AM MST (11/8) 10:13 PM MST (11/8)
Length of Visible Light 11h 05m
Length of Day
10h 06m
Waxing Crescent, 34% of the Moon is Illuminated
Nov 8
Waxing Crescent
Nov 9
First Quarter
Nov 17
Full
Nov 25
Last Quarter
Dec 2
New

Hourly Weather History & Observations

Time (MST) Temp. Windchill Dew Point Humidity Pressure Visibility Wind Dir Wind Speed Gust Speed Precip Events Conditions
12:53 AM 39.0 °F 30.6 °F 24.1 °F 55% 29.86 in 10.0 mi SSW 15.0 mph - N/A   Clear
1:53 AM 37.0 °F 30.4 °F 21.9 °F 54% 29.84 in 10.0 mi South 9.2 mph - N/A   Clear
2:53 AM 41.0 °F 32.2 °F 19.9 °F 43% 29.78 in 10.0 mi SSW 18.4 mph - N/A   Clear
3:53 AM 41.0 °F 35.8 °F 18.0 °F 40% 29.81 in 10.0 mi SSE 8.1 mph - N/A   Scattered Clouds
4:53 AM 39.0 °F 33.4 °F 17.1 °F 41% 29.84 in 10.0 mi South 8.1 mph - N/A   Clear
5:53 AM 39.9 °F 32.5 °F 18.0 °F 41% 29.83 in 10.0 mi SW 12.7 mph - N/A   Clear
6:53 AM 39.9 °F 31.4 °F 19.0 °F 43% 29.85 in 10.0 mi SSW 16.1 mph - N/A   Clear
7:53 AM 39.0 °F 30.3 °F 21.0 °F 49% 29.86 in 10.0 mi SSW 16.1 mph - N/A   Clear
8:53 AM 41.0 °F 33.5 °F 19.9 °F 43% 29.86 in 10.0 mi SW 13.8 mph - N/A   Scattered Clouds
9:53 AM 42.1 °F 33.6 °F 21.9 °F 45% 29.85 in 10.0 mi WSW 18.4 mph 33.4 mph N/A   Clear
10:53 AM 45.0 °F 37.1 °F 23.0 °F 42% 29.82 in 10.0 mi WSW 19.6 mph 31.1 mph N/A   Mostly Cloudy
11:53 AM 46.9 °F - 23.0 °F 39% 29.80 in 10.0 mi WSW 27.6 mph 39.1 mph N/A   Partly Cloudy
12:53 PM 46.0 °F 36.7 °F 21.0 °F 37% 29.80 in 10.0 mi WSW 29.9 mph 39.1 mph N/A   Clear
1:53 PM 48.9 °F - 21.0 °F 33% 29.79 in 10.0 mi West 29.9 mph 36.8 mph N/A   Clear
2:53 PM 48.9 °F - 21.0 °F 33% 29.78 in 10.0 mi SW 26.5 mph 36.8 mph N/A   Clear
3:53 PM 48.0 °F - 21.0 °F 34% 29.81 in 10.0 mi WSW 26.5 mph 34.5 mph N/A   Mostly Cloudy
4:53 PM 44.1 °F 33.0 °F 19.9 °F 38% 29.79 in 10.0 mi WSW 36.8 mph 44.9 mph N/A   Clear
5:53 PM 44.1 °F 33.0 °F 21.0 °F 40% 29.79 in 10.0 mi West 36.8 mph 49.5 mph N/A   Clear
6:53 PM 43.0 °F 32.5 °F 21.0 °F 42% 29.84 in 10.0 mi WSW 29.9 mph 40.3 mph N/A   Clear
7:53 PM 43.0 °F 34.5 °F 21.9 °F 43% 29.89 in 10.0 mi WSW 19.6 mph 27.6 mph N/A   Mostly Cloudy
8:53 PM 43.0 °F 38.2 °F 21.9 °F 43% 29.92 in 10.0 mi West 8.1 mph - N/A   Overcast
9:53 PM 39.0 °F 30.6 °F 23.0 °F 53% 29.93 in 10.0 mi WSW 15.0 mph - N/A   Mostly Cloudy
10:53 PM 39.9 °F 29.7 °F 21.9 °F 49% 29.91 in 10.0 mi SW 23.0 mph - N/A   Clear
11:53 PM 39.0 °F 28.5 °F 23.0 °F 53% 29.92 in 10.0 mi SW 23.0 mph 35.7 mph N/A   Partly Cloudy